Wind_Speed
16 15 15 13 14 16 18 18 18 16 21 25 28 33 35 40 41 42 43 44 41 38 39 40 38 38 40 44 48 52 55 55 51 50 53 52 53 51 52 55 56 55 56 55
16 15 15 14 16 17 16 18 20 21 26 29 34 38 42 43 44 45 43 44 38 39 42 37 40 42 45 49 54 56 60 60 59 59 60 61 62 62 62 62 61 63 64 62
16 14 13 12 17 20 20 21 22 25 25 31 36 38 42 46 44 43 43 42 39 38 36 38 43 49 52 56 59 62 64 66 67 67 68 68 68 68 67 69 70 67 65 63
15 13 11 15 18 20 21 21 22 25 24 24 27 31 34 39 40 41 43 44 42 40 40 44 49 53 57 60 61 64 70 73 73 74 75 75 73 71 71 69 62 59 59 57
13 14 15 17 16 19 19 20 20 23 24 21 24 25 25 27 30 34 36 38 38 40 43 47 52 57 59 62 65 69 72 74 75 78 78 77 78 76 67 61 57 51 47 48
12 16 19 19 16 13 18 22 20 17 22 22 23 24 22 23 26 28 30 34 38 42 47 52 54 56 59 65 67 70 71 73 76 77 77 80 75 67 60 55 55 55 51 41
14 15 16 20 18 16 16 18 17 18 18 19 22 24 26 26 27 29 33 37 42 46 50 52 55 58 61 63 64 68 71 72 75 76 79 72 69 65 61 55 54 52 48 46
14 14 15 18 18 18 18 19 22 22 21 18 22 26 26 27 31 32 36 39 42 46 50 52 54 55 58 60 63 67 69 73 75 78 70 67 66 65 61 55 53 50 47 40
15 17 15 17 17 18 21 23 24 23 23 23 23 25 26 27 31 33 35 39 42 42 42 44 50 52 55 59 64 67 71 73 75 66 64 64 63 60 55 52 47 48 45 40
16 21 20 19 19 20 23 24 26 26 25 24 23 23 25 25 30 34 36 38 40 43 46 48 52 55 59 64 66 71 71 75 63 60 60 60 59 57 50 44 42 41 40 38
19 20 22 23 20 21 23 25 28 26 25 27 23 20 25 28 31 34 36 40 43 45 48 52 56 60 64 66 69 67 72 59 57 57 57 58 56 54 53 52 50 49 47 46
18 18 19 21 23 21 23 25 28 28 24 27 28 25 26 30 32 34 36 40 43 47 51 55 58 62 64 67 67 71 54 54 55 55 55 53 50 48 49 50 49 47 48 45
17 17 17 20 21 23 23 28 28 28 27 26 27 28 29 31 35 37 40 43 46 50 53 56 61 64 66 66 69 51 49 53 54 53 50 50 50 48 45 43 43 40 39 40
22 20 19 20 22 23 25 25 28 32 32 32 27 29 33 35 37 39 41 44 47 50 54 59 61 63 64 67 50 46 50 51 51 48 46 46 45 44 43 41 37 34 35 35
23 22 20 21 21 22 23 25 27 29 29 32 28 29 32 35 37 39 41 44 47 52 56 58 58 63 62 46 44 48 48 48 47 45 43 42 39 42 41 39 36 30 28 28
23 23 22 21 23 22 23 27 28 29 30 31 30 30 33 35 36 38 41 44 49 53 53 55 60 58 43 41 44 47 46 45 43 38 37 36 38 42 40 36 34 32 25 21
23 24 22 20 21 23 26 29 33 33 31 30 30 30 33 33 36 38 42 46 49 50 53 56 57 44 40 43 46 44 42 39 36 36 36 35 38 34 37 36 33 31 26 18
26 26 25 23 22 23 26 30 32 29 26 25 27 30 30 32 34 37 41 45 47 50 54 56 49 40 42 46 44 40 39 35 33 34 34 37 40 41 35 34 33 31 24 19
29 28 28 26 24 22 24 30 27 25 22 25 28 29 30 31 34 37 42 45 47 49 53 55 44 39 42 42 40 39 36 32 30 31 33 35 36 38 34 32 31 28 24 18
30 30 29 27 27 24 24 25 27 26 24 25 27 29 29 32 33 36 42 44 46 51 54 53 41 39 42 39 39 38 33 29 30 30 34 33 34 34 35 27 24 21 20 19
31 32 31 29 29 23 23 24 23 24 24 26 27 26 28 31 34 37 42 42 46 51 54 50 38 38 37 37 38 37 31 29 30 28 30 31 33 33 37 35 25 18 17 17
33 36 32 30 29 27 24 24 24 25 26 29 30 29 29 32 36 37 40 40 46 52 53 45 35 35 33 36 37 36 30 29 30 28 30 32 31 32 28 32 33 26 12 9
37 35 34 30 27 29 25 27 25 26 28 29 32 30 29 33 36 37 37 39 45 50 50 41 32 31 32 34 37 36 30 28 28 27 30 32 31 37 37 29 27 25 23 16
38 38 36 34 28 29 27 27 27 26 29 32 31 30 29 33 35 35 34 39 44 47 47 38 30 28 30 33 34 36 33 29 27 28 31 34 35 36 39 35 25 25 21 13
38 37 37 34 30 30 27 28 28 26 29 31 30 29 30 31 34 33 32 37 41 44 44 36 28 28 29 32 32 34 33 32 29 29 32 35 36 34 35 34 29 26 20 13
34 36 38 35 33 32 29 30 28 27 28 31 30 30 30 30 33 31 30 34 40 42 42 35 27 27 27 29 27 32 32 31 32 30 31 33 35 34 34 28 27 23 19 16
Wind_Direction
269 273 283 289 287 274 264 258 268 270 280 288 290 291 295 297 302 306 308 309 312 307 306 301 306 311 309 303 304 308 306 305 305 305 307 305 303 299 296 295 292 286 281 274
277 287 290 286 278 278 275 272 273 274 280 279 279 285 287 293 295 298 298 299 300 298 300 307 310 304 304 309 309 307 306 309 310 310 310 309 307 304 302 300 297 296 291 286
281 284 287 277 275 282 291 289 283 281 276 274 279 280 280 284 288 290 293 298 301 298 304 308 302 305 311 311 310 307 311 314 313 312 311 310 308 306 305 303 302 300 295 290
268 276 275 273 284 296 297 294 290 291 292 285 280 276 270 276 284 289 293 295 296 297 303 302 304 313 313 312 311 313 314 313 313 313 312 312 311 308 306 303 302 298 294 290
282 292 295 291 305 304 292 293 296 293 294 294 286 290 290 284 284 284 287 289 293 297 298 305 311 313 313 314 315 313 311 311 312 312 313 314 313 311 308 305 301 297 292 290
285 292 295 299 300 286 289 291 303 301 294 294 290 292 291 287 288 286 286 291 295 302 306 309 312 313 315 311 312 310 311 310 310 314 314 313 310 308 306 303 299 298 296 288
286 288 294 295 302 309 300 307 310 309 307 298 295 290 290 293 290 290 298 301 301 302 306 310 313 312 309 308 308 306 307 310 314 314 313 311 310 308 301 295 294 292 292 292
294 291 294 296 304 309 310 313 315 315 314 304 293 290 295 293 292 296 296 299 304 308 309 307 303 301 305 305 306 307 312 316 315 315 313 312 310 308 305 299 294 291 290 286
311 304 306 299 304 306 311 312 312 312 309 305 296 290 292 290 295 297 295 296 299 301 301 300 304 304 306 309 311 313 317 316 316 313 313 312 310 308 303 300 295 291 288 285
309 305 309 307 306 311 314 315 316 316 313 309 305 299 294 295 294 296 301 306 306 307 312 311 310 313 314 313 316 319 318 315 312 312 312 311 310 308 303 299 295 290 288 286
301 298 306 305 305 313 315 316 314 312 313 312 307 297 295 295 301 308 309 310 312 313 314 315 318 317 315 317 318 317 317 313 313 313 314 313 311 308 302 296 290 287 285 284
292 293 294 294 304 311 316 320 316 313 315 314 310 311 304 303 304 305 311 311 314 318 320 319 316 315 318 319 317 317 315 314 317 319 317 318 319 314 309 303 297 289 284 280
295 287 286 292 298 309 314 317 319 315 313 317 309 309 305 306 312 313 313 318 320 322 319 315 318 319 318 316 318 319 317 320 322 320 323 324 322 319 317 311 304 296 288 282
285 286 287 291 299 306 310 317 312 314 316 311 316 307 306 309 312 316 319 321 322 318 316 320 320 320 320 321 323 320 319 323 323 326 327 326 328 330 328 325 319 303 291 280
277 282 284 289 295 307 317 311 308 315 313 307 310 303 302 308 315 318 318 320 318 318 321 322 325 325 324 327 323 321 325 328 330 332 334 336 343 344 338 334 331 321 307 289
277 275 281 288 294 302 311 312 310 306 307 307 308 306 306 309 313 315 319 319 320 322 324 328 330 327 329 327 326 329 331 333 335 341 345 348 347 351 347 345 343 340 330 316
270 272 277 279 287 298 305 309 312 309 305 306 305 304 305 311 313 318 319 319 322 325 331 334 331 331 330 330 331 332 334 339 342 347 345 347 348 345 345 347 347 348 346 341
268 269 274 281 287 297 306 308 314 309 305 304 301 301 309 311 316 316 317 321 328 333 335 336 334 334 331 333 334 333 339 343 344 348 345 346 348 347 344 343 356 359 359 1
266 272 277 282 286 296 303 303 313 311 314 307 309 309 311 313 314 318 321 328 333 334 337 339 336 334 336 337 337 338 343 346 345 347 346 350 358 357 357 350 4 4 11 13
268 271 277 284 288 294 294 303 319 319 320 315 311 314 315 313 318 319 326 332 333 339 339 341 338 336 338 339 341 341 346 348 346 349 350 351 2 6 3 352 360 8 19 20
268 272 276 281 285 290 291 303 313 314 317 310 313 316 313 316 318 325 330 333 337 342 342 342 338 336 342 343 342 344 351 351 347 351 355 0 2 4 0 4 359 11 8 6
264 266 271 277 281 289 291 292 304 314 316 315 318 320 318 318 320 328 330 336 342 343 344 340 337 340 347 349 346 351 354 357 352 354 358 355 355 1 0 10 5 357 357 353
261 266 268 271 279 284 288 288 300 310 315 318 320 320 320 317 321 328 332 339 344 344 342 341 336 340 345 348 352 355 356 358 355 356 357 4 2 7 10 8 359 359 359 334
260 264 267 269 272 276 281 287 294 303 312 315 317 317 316 315 319 328 335 341 346 344 342 341 334 333 341 347 348 356 358 358 355 351 353 357 357 358 6 6 13 5 358 359
258 261 264 269 276 279 284 286 289 295 303 312 312 313 310 314 320 330 337 343 346 346 344 343 333 329 330 341 348 352 359 356 358 354 351 353 355 353 1 9 9 8 13 23
256 262 265 269 272 276 281 282 289 293 304 309 311 309 309 316 322 331 338 341 345 349 347 344 336 330 328 337 345 348 353 356 358 356 356 357 357 358 12 15 6 19 26 37
Height
5902 5903 5901 5901 5900 5900 5900 5899 5897 5895 5894 5892 5890 5889 5887 5883 5881 5880 5879 5877 5875 5872 5868 5865 5863 5860 5856 5851 5846 5840 5835 5830 5824 5818 5811 5806 5800 5796 5791 5785 5781 5778 5775 5773
5900 5901 5899 5898 5898 5897 5897 5895 5892 5891 5889 5887 5885 5884 5880 5878 5877 5876 5875 5873 5870 5866 5861 5858 5856 5851 5846 5841 5834 5829 5822 5815 5808 5802 5795 5788 5782 5777 5772 5767 5762 5756 5752 5751
5896 5898 5897 5896 5895 5893 5893 5891 5889 5887 5886 5883 5880 5879 5876 5873 5871 5870 5868 5866 5864 5861 5856 5854 5848 5841 5836 5830 5823 5816 5808 5800 5794 5786 5779 5773 5769 5763 5756 5749 5742 5734 5729 5725
5895 5895 5895 5894 5892 5890 5888 5886 5884 5881 5880 5878 5875 5872 5872 5868 5866 5865 5862 5860 5857 5853 5851 5847 5840 5833 5828 5820 5813 5804 5794 5786 5777 5769 5762 5755 5749 5744 5738 5732 5727 5718 5709 5705
5893 5892 5891 5891 5890 5888 5885 5882 5880 5877 5874 5872 5869 5868 5867 5866 5864 5861 5858 5854 5851 5849 5844 5838 5833 5827 5818 5809 5801 5793 5784 5774 5764 5755 5747 5739 5730 5724 5718 5711 5706 5703 5697 5689
5891 5889 5887 5886 5885 5884 5882 5879 5876 5873 5871 5868 5865 5863 5863 5861 5859 5856 5853 5850 5846 5841 5835 5830 5826 5818 5809 5801 5793 5783 5773 5763 5754 5744 5734 5725 5715 5708 5703 5696 5690 5684 5681 5680
5888 5887 5885 5882 5881 5879 5877 5875 5873 5871 5867 5864 5861 5859 5857 5856 5854 5851 5848 5843 5839 5835 5830 5823 5816 5810 5802 5793 5784 5775 5765 5755 5745 5733 5723 5712 5702 5694 5687 5681 5675 5671 5668 5665
5885 5885 5883 5880 5878 5876 5873 5872 5869 5866 5864 5862 5856 5854 5853 5850 5846 5845 5842 5839 5834 5829 5823 5818 5813 5804 5796 5785 5776 5765 5755 5744 5732 5721 5709 5698 5687 5678 5671 5665 5660 5657 5654 5653
5880 5880 5879 5877 5875 5874 5870 5868 5866 5863 5860 5856 5854 5850 5847 5845 5841 5839 5836 5833 5830 5826 5820 5813 5805 5796 5786 5775 5764 5753 5742 5730 5718 5706 5697 5686 5676 5666 5658 5652 5646 5643 5641 5639
5878 5875 5874 5872 5871 5869 5866 5864 5860 5857 5854 5851 5848 5845 5841 5840 5837 5834 5831 5827 5821 5814 5808 5802 5792 5782 5772 5760 5750 5739 5728 5717 5706 5697 5686 5675 5665 5655 5647 5640 5635 5631 5628 5626
5874 5872 5870 5867 5867 5865 5863 5859 5855 5853 5850 5845 5844 5842 5837 5834 5831 5827 5823 5817 5811 5805 5799 5789 5778 5768 5758 5748 5738 5727 5716 5704 5695 5685 5674 5663 5652 5642 5634 5627 5621 5618 5615 5612
5870 5869 5866 5864 5861 5861 5859 5855 5851 5848 5847 5842 5837 5837 5834 5829 5826 5821 5816 5811 5805 5797 5788 5778 5769 5759 5748 5737 5726 5716 5704 5693 5684 5673 5662 5651 5640 5630 5621 5612 5604 5600 5598 5596
5865 5864 5862 5860 5859 5857 5854 5850 5846 5842 5839 5838 5833 5831 5826 5822 5818 5814 5810 5803 5795 5788 5779 5770 5759 5748 5737 5726 5714 5703 5693 5684 5673 5662 5651 5640 5629 5618 5609 5599 5591 5585 5581 5580
5859 5858 5858 5856 5854 5853 5850 5847 5841 5837 5834 5830 5830 5824 5819 5816 5813 5808 5801 5795 5788 5780 5770 5759 5750 5739 5726 5713 5702 5694 5685 5675 5664 5653 5643 5632 5621 5610 5599 5590 5581 5573 5569 5566
5854 5853 5853 5851 5849 5848 5845 5842 5838 5834 5831 5825 5824 5820 5816 5812 5807 5802 5797 5790 5781 5771 5762 5753 5742 5729 5716 5705 5696 5687 5678 5667 5657 5647 5636 5626 5616 5604 5593 5583 5574 5565 5559 5555
5849 5848 5848 5847 5844 5843 5840 5836 5833 5830 5826 5821 5817 5814 5810 5806 5802 5797 5792 5783 5774 5766 5757 5746 5733 5721 5711 5701 5691 5681 5671 5661 5652 5642 5633 5623 5613 5602 5592 5581 5571 5562 5554 5549
5844 5842 5842 5842 5840 5839 5836 5831 5827 5823 5819 5816 5812 5809 5805 5801 5797 5792 5785 5777 5770 5761 5750 5739 5727 5715 5706 5696 5686 5676 5667 5658 5649 5639 5631 5621 5611 5601 5591 5580 5569 5561 5553 5547
5837 5836 5836 5836 5835 5835 5830 5826 5822 5819 5815 5812 5807 5804 5801 5796 5791 5786 5780 5772 5764 5754 5744 5733 5720 5711 5701 5691 5681 5672 5663 5655 5646 5637 5629 5620 5611 5600 5590 5580 5571 5562 5555 5550
5831 5830 5829 5829 5829 5829 5825 5822 5818 5814 5812 5806 5803 5800 5796 5791 5786 5780 5773 5766 5757 5748 5738 5726 5715 5706 5696 5687 5678 5668 5660 5652 5645 5636 5628 5620 5610 5600 5590 5581 5573 5566 5558 5553
5824 5823 5823 5822 5821 5822 5820 5816 5811 5808 5806 5802 5798 5794 5791 5786 5781 5775 5767 5760 5752 5742 5732 5720 5710 5701 5693 5684 5675 5666 5658 5651 5644 5636 5629 5620 5610 5601 5591 5583 5575 5569 5563 5558
5815 5815 5814 5814 5813 5817 5814 5810 5807 5806 5804 5797 5793 5790 5786 5781 5775 5769 5762 5756 5747 5737 5726 5715 5706 5699 5691 5682 5673 5665 5657 5650 5644 5637 5630 5622 5612 5603 5594 5585 5578 5571 5567 5562
5807 5806 5808 5808 5807 5808 5807 5805 5803 5800 5795 5791 5788 5784 5779 5775 5768 5763 5757 5750 5741 5732 5721 5712 5704 5697 5690 5682 5673 5664 5656 5650 5644 5637 5629 5622 5614 5605 5597 5589 5580 5573 5567 5562
5797 5799 5799 5802 5801 5799 5799 5797 5795 5793 5790 5786 5782 5778 5774 5768 5763 5759 5753 5746 5737 5728 5719 5709 5702 5695 5689 5681 5673 5665 5657 5650 5644 5638 5630 5623 5615 5607 5598 5590 5583 5576 5568 5562
5788 5789 5790 5791 5794 5792 5792 5791 5788 5787 5784 5781 5778 5773 5768 5763 5758 5754 5748 5741 5734 5725 5716 5706 5699 5693 5688 5681 5673 5666 5658 5651 5645 5639 5632 5625 5617 5608 5600 5592 5584 5577 5570 5564
5780 5782 5782 5783 5784 5783 5784 5783 5782 5781 5779 5776 5772 5768 5763 5758 5753 5749 5744 5738 5731 5723 5713 5704 5697 5691 5687 5681 5674 5667 5659 5652 5646 5640 5633 5626 5618 5610 5602 5594 5586 5579 5572 5567
5775 5774 5773 5774 5775 5774 5776 5775 5774 5773 5772 5769 5765 5761 5757 5752 5748 5744 5740 5735 5729 5721 5711 5701 5694 5689 5684 5679 5674 5667 5661 5654 5647 5641 5634 5628 5620 5612 5604 5598 5590 5583 5577 5574